Temperature
6 6 6 5 5 5 5 5 5 5 5 4 5 5 5 5 5 5 5 5 5 5 5 5 5 5 5 5 5 5 5 5 5 6 6 6 6 6 6 6 6 6 6
5 5 5 5 5 5 4 4 4 4 4 4 4 4 4 4 4 4 4 4 4 4 4 4 4 5 5 5 5 5 5 5 4 4 4 4 4 5 5 5 5 5 5
4 4 4 4 4 4 4 4 4 4 4 4 4 3 3 4 4 4 4 4 3 3 3 3 4 4 4 4 4 4 4 4 4 4 4 4 4 3 4 4 5 5 5
3 4 4 4 4 4 4 4 3 3 3 3 3 3 3 3 3 3 3 3 3 3 3 3 3 3 3 3 3 3 3 3 3 3 3 3 3 3 3 3 4 4 4
3 3 3 3 3 3 3 3 3 3 3 2 2 3 3 3 3 3 3 3 3 2 2 2 2 2 2 3 3 3 3 3 3 3 2 2 2 2 2 2 3 3 3
2 2 2 3 3 3 3 3 2 2 2 2 2 2 2 2 2 2 2 2 2 2 2 2 2 2 2 2 2 2 2 2 2 2 2 2 2 2 2 2 2 2 3
1 1 2 2 2 2 2 2 2 2 2 2 2 1 1 1 1 2 2 2 2 1 1 1 1 1 1 1 1 2 2 1 1 1 1 1 1 1 1 1 1 1 1
0 0 1 1 1 1 1 2 2 2 2 1 1 1 1 1 1 1 1 1 1 1 1 1 1 1 1 1 1 1 1 1 1 1 1 1 1 1 1 0 0 -0 -0
-1 -1 -0 -0 0 0 1 1 1 1 1 1 1 1 1 0 0 1 1 1 1 0 0 0 0 0 0 0 -0 -0 0 0 0 0 0 0 0 0 -0 -0 -0 -1 -1
-2 -1 -1 -1 -1 -0 -0 -0 0 0 0 0 0 0 0 0 -0 -0 0 0 0 -0 -0 -0 -0 -0 -1 -1 -1 -1 -1 -1 -1 -1 -1 -1 -1 -1 -1 -1 -1 -1 -1
-3 -2 -2 -2 -1 -1 -1 -1 -1 -0 -0 -0 -0 -0 -0 -0 -0 -0 -0 -1 -1 -1 -1 -1 -1 -1 -1 -1 -1 -1 -1 -1 -1 -1 -1 -1 -1 -1 -1 -1 -1 -2 -2
-3 -3 -3 -2 -2 -2 -2 -2 -1 -1 -1 -1 -1 -1 -1 -1 -1 -1 -1 -1 -1 -1 -1 -1 -1 -2 -1 -2 -2 -2 -2 -2 -2 -2 -2 -2 -2 -2 -2 -2 -2 -2 -2
-4 -3 -3 -3 -3 -3 -3 -2 -2 -2 -2 -2 -2 -2 -2 -2 -2 -2 -2 -2 -2 -2 -2 -2 -2 -2 -2 -2 -2 -2 -2 -2 -2 -2 -2 -2 -2 -2 -2 -3 -3 -3 -3
-5 -4 -4 -4 -4 -4 -3 -3 -3 -3 -3 -2 -2 -2 -2 -2 -2 -2 -2 -2 -2 -3 -3 -3 -2 -2 -2 -2 -2 -3 -3 -3 -3 -3 -3 -3 -3 -3 -3 -3 -3 -3 -3
-5 -5 -5 -5 -5 -4 -4 -4 -4 -3 -3 -3 -3 -3 -3 -3 -3 -3 -3 -3 -3 -3 -3 -3 -3 -3 -3 -3 -3 -3 -3 -3 -3 -3 -3 -3 -3 -4 -4 -4 -4 -4 -4
-6 -6 -6 -5 -5 -5 -5 -5 -4 -4 -4 -4 -4 -4 -4 -4 -4 -4 -4 -4 -4 -4 -4 -4 -4 -4 -3 -3 -4 -4 -4 -4 -4 -4 -4 -4 -4 -4 -4 -4 -4 -4 -4
-7 -7 -6 -6 -6 -6 -6 -5 -5 -5 -5 -5 -5 -5 -5 -5 -5 -5 -5 -5 -5 -5 -5 -5 -4 -4 -4 -4 -4 -4 -5 -5 -5 -5 -4 -4 -4 -5 -5 -5 -5 -5 -5
-7 -7 -7 -7 -6 -6 -6 -6 -5 -5 -6 -5 -5 -5 -6 -6 -6 -6 -6 -6 -6 -6 -6 -5 -5 -5 -5 -5 -5 -5 -5 -5 -5 -5 -5 -5 -5 -5 -5 -5 -5 -5 -5
-7 -7 -7 -7 -7 -7 -7 -6 -6 -6 -6 -6 -6 -6 -6 -6 -6 -6 -6 -6 -7 -6 -6 -6 -6 -6 -5 -5 -5 -6 -6 -6 -6 -6 -6 -6 -6 -5 -6 -6 -6 -6 -6
-8 -8 -8 -8 -8 -7 -8 -7 -7 -7 -7 -7 -7 -7 -7 -7 -7 -7 -7 -7 -7 -7 -7 -7 -7 -6 -6 -6 -6 -6 -7 -7 -7 -7 -7 -6 -6 -6 -6 -6 -6 -6 -6
-9 -9 -8 -8 -8 -8 -8 -8 -8 -8 -8 -8 -8 -8 -8 -8 -8 -8 -8 -8 -8 -8 -8 -7 -7 -7 -7 -7 -7 -7 -7 -7 -7 -7 -7 -7 -7 -7 -7 -6 -6 -6 -6
-9 -9 -9 -9 -9 -9 -9 -9 -9 -9 -9 -9 -9 -8 -8 -9 -9 -9 -9 -9 -9 -9 -9 -8 -8 -8 -8 -8 -8 -8 -8 -8 -7 -7 -7 -7 -7 -7 -7 -7 -7 -7 -7
-10 -10 -10 -10 -10 -10 -10 -10 -9 -9 -9 -9 -9 -9 -9 -9 -9 -9 -9 -9 -9 -10 -9 -9 -9 -9 -8 -8 -8 -8 -8 -8 -8 -8 -8 -8 -8 -8 -8 -7 -7 -8 -8
-10 -10 -10 -10 -10 -10 -10 -10 -10 -10 -10 -10 -10 -9 -9 -10 -10 -10 -10 -10 -10 -10 -10 -10 -10 -10 -9 -9 -9 -9 -9 -9 -9 -9 -8 -8 -8 -8 -8 -8 -8 -8 -8
-11 -11 -11 -11 -11 -11 -11 -11 -11 -10 -10 -10 -10 -10 -10 -10 -10 -10 -10 -10 -10 -10 -10 -10 -10 -10 -10 -9 -9 -9 -9 -9 -9 -9 -9 -9 -9 -9 -9 -9 -9 -9 -9
-12 -12 -12 -12 -11 -11 -11 -11 -11 -11 -11 -11 -11 -11 -11 -11 -11 -10 -10 -10 -11 -11 -11 -11 -11 -10 -10 -10 -10 -10 -10 -10 -9 -9 -9 -9 -9 -9 -9 -9 -9 -9 -9
Wind_Speed
5 3 3 3 3 4 5 6 6 6 5 4 3 3 2 2 1 1 2 3 3 3 3 2 2 2 2 2 2 2 2 2 2 2 2 2 2 2 2 3 4 4 4
3 3 3 3 4 5 5 6 6 7 6 5 4 2 2 2 2 2 2 3 3 4 3 2 2 1 1 2 2 2 2 1 1 1 1 1 2 2 1 2 2 2 4
6 4 4 5 5 6 6 6 6 6 6 5 3 2 2 1 1 2 2 2 3 4 3 3 2 2 2 3 3 3 3 2 0 1 1 2 2 2 2 1 1 1 2
4 4 4 4 5 6 5 5 6 6 5 5 5 6 4 3 4 3 3 3 3 4 4 4 3 3 2 2 4 4 2 3 2 0 0 0 1 1 1 2 1 1 1
3 4 4 5 4 4 4 4 4 5 5 6 6 6 5 4 2 2 3 3 3 3 4 5 4 4 3 3 3 4 3 3 3 2 1 0 1 1 1 3 3 2 2
3 2 2 2 2 2 2 3 3 5 5 5 5 6 6 4 4 4 4 3 3 3 4 5 5 4 4 4 4 4 5 4 4 3 3 2 2 2 1 2 3 3 3
4 3 3 2 2 2 2 3 4 4 5 6 6 6 6 6 6 6 5 5 3 4 5 5 5 5 5 5 5 4 5 5 5 5 4 3 2 2 2 2 2 3 3
4 4 3 3 3 2 2 3 4 4 4 5 5 5 5 5 5 6 5 6 5 5 5 6 6 6 6 6 5 4 4 5 5 6 5 3 3 3 3 2 2 2 3
5 4 4 3 3 2 2 3 3 3 4 5 5 5 5 5 6 5 5 5 4 4 6 6 6 6 7 7 6 4 5 5 6 6 6 5 4 4 3 3 3 3 4
5 5 5 5 4 3 2 1 2 3 3 4 4 4 5 5 5 5 6 6 5 5 5 6 6 6 7 7 6 5 5 5 5 5 6 6 4 4 4 4 3 3 4
6 6 5 5 5 5 3 2 2 2 3 3 4 4 4 4 4 5 6 6 6 6 6 6 6 6 7 6 6 6 6 7 6 6 7 7 5 5 4 4 4 3 3
6 5 5 5 5 5 5 4 3 3 3 3 3 4 4 4 5 6 6 6 6 7 7 7 7 7 7 7 7 7 7 8 8 7 7 8 6 6 5 5 5 5 4
6 6 6 5 5 5 5 5 4 4 4 3 3 4 4 5 6 6 6 6 6 7 7 7 8 8 7 7 7 8 8 8 8 8 8 8 8 8 6 6 6 5 5
6 6 6 6 6 6 5 5 5 5 4 3 3 4 5 5 6 6 6 6 6 7 7 7 8 8 8 8 8 8 8 8 8 8 8 8 9 9 8 7 7 6 5
7 7 6 6 7 7 6 6 6 5 4 3 4 5 5 4 5 5 5 6 6 7 7 6 7 6 7 8 8 8 8 8 8 7 8 8 10 12 10 8 7 7 6
7 7 7 7 7 7 7 7 7 5 4 4 5 5 4 4 4 5 5 5 6 6 6 6 7 7 7 11 13 10 8 8 8 8 7 8 9 12 13 13 12 11 9
7 7 7 7 7 7 7 7 7 6 5 5 5 5 4 5 5 5 4 5 5 5 6 7 7 8 9 11 13 13 8 8 8 8 7 7 8 10 8 10 11 11 12
8 7 7 7 7 7 7 6 6 5 5 5 5 5 5 5 5 4 5 5 5 5 6 7 7 8 9 12 12 12 8 7 8 8 8 8 8 8 9 8 7 7 8
7 7 7 7 7 7 6 5 6 5 5 6 6 5 5 5 5 5 6 5 5 5 6 6 7 8 8 11 12 11 6 6 7 8 8 9 9 12 12 9 8 7 7
6 6 6 6 7 7 6 5 6 6 6 7 6 6 5 6 6 6 6 5 5 6 6 7 6 7 8 11 12 11 6 7 7 7 8 11 11 13 13 10 9 9 8
7 7 6 6 6 7 6 6 7 7 8 7 6 6 6 6 6 6 5 5 5 5 5 6 6 6 8 10 12 12 7 7 7 7 7 8 12 13 13 12 9 10 8
8 7 7 7 7 6 6 7 8 9 8 7 6 6 6 5 5 5 5 5 5 5 5 5 5 5 6 9 10 13 12 10 7 7 7 8 12 12 12 10 10 11 8
8 7 7 8 7 6 6 7 9 8 7 7 7 6 6 5 5 5 5 5 4 4 5 5 5 5 5 6 11 12 12 11 7 7 9 10 11 11 9 10 11 8 5
8 8 8 8 8 8 7 7 8 7 6 7 7 5 5 5 5 4 5 5 4 5 5 5 5 5 5 5 5 5 6 8 7 5 7 9 10 8 7 7 6 5 5
8 8 8 9 10 9 9 9 8 7 6 7 6 5 5 5 5 5 5 6 5 6 6 6 5 5 6 7 8 6 5 5 5 5 3 3 4 4 4 4 4 4 5
8 8 8 9 10 9 10 9 8 6 6 6 6 5 4 4 4 4 5 7 7 9 10 10 8 7 8 9 10 10 9 9 8 6 5 5 5 6 6 6 5 5 6
Wind_Direction
254 226 208 190 171 180 184 187 182 177 164 165 170 170 186 181 171 174 171 172 160 149 135 108 90 101 134 145 122 104 93 63 45 59 36 5 11 51 42 44 51 46 39
261 229 211 195 193 194 196 189 190 185 182 181 178 173 170 183 190 187 176 188 176 164 170 153 159 124 144 150 146 122 124 78 54 76 83 3 332 342 358 19 46 38 39
236 227 213 210 205 205 205 204 193 187 187 174 152 128 110 102 150 189 191 193 195 186 187 183 173 168 163 191 186 178 156 162 203 57 124 148 224 302 310 329 357 20 25
240 226 219 219 215 215 209 206 196 185 182 173 174 174 184 199 207 201 200 204 202 206 202 193 189 189 188 207 202 184 181 166 184 235 11 135 158 191 270 298 307 334 337
250 235 227 226 227 217 207 203 198 188 182 181 185 190 201 206 200 192 198 205 211 216 217 205 201 204 206 211 217 194 186 186 188 187 193 78 353 215 205 259 277 297 297
308 286 265 242 246 226 208 203 201 198 188 187 188 195 201 197 194 204 210 213 218 223 228 220 211 212 215 217 220 209 196 197 196 194 193 193 202 214 212 245 264 278 288
346 341 336 318 279 240 217 207 204 213 198 194 199 203 205 200 204 208 212 214 220 226 224 229 224 221 223 223 220 214 211 200 199 202 210 209 216 213 226 238 263 281 294
352 346 331 316 296 262 234 215 212 224 207 201 210 210 209 209 216 214 214 216 221 225 222 226 230 229 224 222 215 218 221 211 208 213 210 215 218 214 216 217 224 271 281
354 351 348 341 323 296 259 231 223 233 225 213 215 216 215 218 222 221 219 224 228 231 221 222 224 228 224 219 212 220 220 218 217 216 213 218 221 218 218 220 213 215 244
349 348 348 345 339 331 317 289 236 235 243 224 221 233 229 228 226 220 222 224 226 229 222 223 221 224 227 220 212 221 220 217 224 220 211 216 219 215 217 223 227 226 227
338 342 344 347 347 349 342 328 293 266 259 237 231 234 236 233 229 228 228 228 227 222 223 222 221 221 223 219 214 217 218 217 224 224 215 219 212 214 217 219 223 229 223
333 335 338 344 349 347 342 331 314 292 273 249 239 243 244 237 233 237 237 231 228 226 223 220 221 223 222 218 216 217 218 218 221 224 221 221 218 217 216 217 223 225 223
337 340 341 339 338 335 332 327 315 298 288 261 243 249 248 240 239 241 242 238 232 230 226 220 221 222 221 220 224 222 220 222 225 222 222 221 213 219 220 217 220 225 231
328 332 331 329 328 327 324 320 313 303 294 277 255 251 250 246 246 246 242 239 235 229 227 226 226 226 224 223 225 226 223 222 227 227 225 223 216 217 217 219 218 219 225
321 321 322 322 323 324 323 318 309 307 297 279 269 263 262 257 251 248 245 242 238 236 233 230 231 231 227 224 220 221 223 220 224 228 229 230 227 223 220 220 213 211 218
309 312 315 317 315 314 315 314 308 306 298 277 272 276 275 267 259 254 250 245 241 239 235 231 230 231 234 233 229 225 221 221 222 227 230 233 235 231 232 232 226 218 216
304 306 306 303 305 305 306 304 301 302 294 283 280 276 270 267 265 263 260 251 245 240 238 235 231 233 238 237 235 230 224 220 221 223 225 233 235 230 227 231 232 234 234
304 303 303 303 306 303 302 299 297 296 290 284 279 274 268 267 269 264 260 257 250 243 243 241 235 236 241 237 239 236 229 220 221 221 221 225 230 228 223 222 224 229 234
300 299 300 301 305 307 305 306 303 299 290 282 277 273 267 267 266 263 260 260 254 250 247 244 238 237 243 239 237 237 227 224 225 225 224 223 227 232 226 219 218 226 237
310 308 309 308 310 311 312 307 303 302 293 286 282 277 268 262 260 260 262 263 255 255 250 250 244 239 241 241 236 233 227 225 227 228 227 229 230 232 232 221 212 219 226
317 318 317 313 310 313 316 308 305 298 293 292 287 279 269 263 260 261 260 258 256 257 250 251 252 245 242 243 237 232 224 223 224 226 227 228 232 234 237 233 220 222 220
324 325 321 315 314 315 314 308 303 301 300 296 290 282 273 269 267 261 264 259 251 254 253 250 255 253 248 246 242 238 237 235 226 226 226 225 229 233 236 235 230 226 222
324 323 318 315 317 316 309 302 302 305 305 301 294 286 281 275 271 263 262 261 251 250 255 250 251 256 251 245 245 243 242 240 233 230 229 230 230 231 232 234 232 225 214
322 321 320 318 317 318 314 303 303 306 305 302 300 295 285 281 275 268 260 254 251 250 252 251 251 256 254 246 240 236 239 236 233 236 233 231 232 230 229 229 228 219 209
319 318 316 313 312 315 315 312 309 307 303 302 301 298 288 278 276 271 260 255 247 245 250 252 249 249 250 247 244 240 232 222 220 212 215 215 212 215 216 218 216 210 209
318 319 318 316 315 316 315 314 312 307 302 303 304 298 292 285 280 278 284 277 270 267 264 263 260 258 256 258 254 249 247 243 232 222 213 214 216 218 217 217 216 213 212
Height
1479 1480 1481 1483 1485 1487 1489 1491 1493 1495 1498 1500 1502 1504 1505 1507 1509 1510 1512 1513 1514 1515 1517 1518 1519 1520 1521 1523 1524 1525 1526 1527 1529 1529 1530 1532 1533 1534 1534 1535 1536 1537 1538
1475 1476 1478 1479 1481 1482 1485 1487 1489 1491 1494 1496 1499 1501 1502 1504 1506 1507 1509 1510 1511 1512 1513 1515 1516 1517 1519 1520 1521 1522 1523 1524 1526 1527 1527 1528 1530 1530 1531 1532 1533 1534 1535
1471 1473 1474 1475 1477 1479 1481 1483 1485 1487 1490 1493 1495 1497 1499 1500 1502 1503 1504 1506 1507 1509 1510 1511 1512 1513 1515 1516 1517 1519 1520 1521 1523 1524 1526 1526 1526 1526 1527 1527 1529 1530 1531
1468 1469 1470 1472 1473 1475 1477 1479 1481 1483 1486 1488 1490 1492 1493 1494 1496 1498 1500 1502 1504 1505 1506 1507 1509 1510 1511 1512 1513 1515 1516 1518 1519 1521 1522 1524 1524 1524 1523 1524 1525 1526 1527
1465 1466 1467 1469 1470 1472 1473 1475 1478 1480 1482 1484 1486 1487 1489 1491 1493 1494 1496 1497 1499 1500 1502 1503 1504 1506 1507 1508 1509 1511 1512 1513 1515 1516 1518 1519 1520 1521 1520 1519 1520 1521 1522
1463 1464 1465 1466 1467 1468 1470 1471 1473 1476 1478 1479 1481 1483 1485 1486 1488 1489 1491 1492 1494 1495 1497 1498 1500 1501 1502 1504 1505 1506 1507 1509 1511 1512 1514 1515 1516 1516 1517 1516 1515 1516 1517
1462 1462 1462 1463 1464 1465 1466 1468 1469 1471 1473 1475 1477 1479 1480 1482 1483 1485 1486 1487 1488 1490 1491 1493 1494 1496 1497 1499 1500 1501 1502 1504 1505 1507 1509 1510 1511 1512 1513 1513 1512 1512 1512
1461 1461 1461 1461 1461 1462 1463 1464 1465 1467 1469 1471 1472 1474 1476 1477 1478 1480 1481 1482 1483 1485 1486 1488 1488 1490 1492 1493 1494 1495 1496 1498 1499 1501 1503 1504 1506 1507 1508 1509 1509 1508 1507
1460 1460 1460 1460 1459 1459 1460 1461 1462 1463 1465 1466 1468 1469 1471 1472 1473 1474 1476 1477 1478 1479 1481 1482 1483 1484 1486 1487 1488 1489 1490 1492 1494 1495 1497 1498 1500 1501 1503 1504 1505 1505 1503
1460 1459 1458 1458 1458 1457 1458 1458 1459 1460 1461 1462 1463 1464 1466 1467 1468 1469 1470 1471 1472 1474 1474 1476 1477 1478 1479 1480 1481 1482 1484 1485 1487 1489 1490 1492 1494 1495 1496 1498 1499 1499 1499
1460 1458 1457 1457 1456 1455 1455 1455 1456 1456 1457 1458 1459 1460 1461 1462 1462 1463 1464 1465 1467 1467 1468 1469 1470 1472 1473 1474 1475 1476 1477 1479 1480 1482 1484 1485 1487 1489 1490 1491 1492 1493 1494
1459 1458 1457 1455 1454 1453 1453 1452 1452 1453 1453 1453 1454 1454 1455 1456 1456 1457 1458 1459 1460 1461 1462 1463 1464 1465 1467 1468 1468 1469 1471 1472 1474 1476 1477 1479 1480 1482 1484 1485 1486 1487 1488
1458 1457 1455 1454 1452 1451 1450 1449 1449 1449 1449 1449 1449 1449 1450 1450 1450 1451 1452 1453 1453 1454 1455 1456 1457 1458 1459 1461 1462 1463 1465 1466 1468 1469 1471 1472 1474 1475 1477 1478 1479 1480 1482
1457 1455 1453 1452 1450 1449 1448 1446 1446 1445 1445 1444 1444 1444 1444 1444 1444 1445 1445 1446 1447 1447 1448 1449 1450 1451 1452 1454 1455 1457 1458 1459 1461 1462 1464 1465 1467 1468 1470 1472 1473 1474 1475
1454 1452 1451 1449 1448 1446 1445 1443 1442 1441 1440 1440 1439 1438 1438 1438 1438 1438 1439 1439 1440 1440 1441 1442 1443 1444 1445 1446 1448 1449 1451 1452 1454 1455 1457 1458 1460 1462 1464 1465 1466 1468 1469
1451 1450 1448 1446 1444 1443 1441 1440 1438 1437 1436 1435 1434 1433 1433 1433 1432 1432 1432 1433 1433 1434 1434 1435 1436 1437 1438 1439 1441 1443 1444 1446 1447 1448 1450 1452 1453 1455 1457 1459 1460 1462 1462
1449 1447 1445 1443 1441 1439 1437 1435 1434 1433 1431 1430 1429 1428 1427 1427 1426 1426 1426 1426 1426 1427 1427 1428 1429 1429 1431 1433 1434 1436 1437 1438 1440 1442 1443 1445 1446 1448 1450 1451 1453 1455 1456
1446 1444 1442 1440 1438 1436 1433 1431 1430 1428 1426 1425 1424 1423 1422 1421 1421 1420 1420 1420 1420 1420 1420 1420 1421 1423 1424 1426 1427 1429 1430 1431 1432 1434 1436 1438 1439 1441 1443 1444 1446 1447 1448
1444 1441 1439 1437 1434 1431 1429 1426 1424 1423 1421 1420 1418 1417 1416 1416 1415 1414 1414 1414 1414 1413 1413 1414 1415 1416 1417 1419 1420 1422 1423 1424 1425 1427 1429 1431 1432 1434 1436 1438 1439 1440 1441
1440 1438 1435 1433 1430 1427 1425 1422 1420 1418 1416 1414 1413 1412 1411 1410 1409 1408 1408 1408 1408 1407 1407 1407 1408 1409 1410 1412 1413 1415 1416 1417 1418 1420 1421 1424 1425 1427 1429 1431 1432 1433 1434
1437 1434 1431 1429 1426 1424 1421 1418 1416 1414 1412 1410 1408 1407 1406 1405 1404 1403 1403 1402 1402 1402 1401 1401 1402 1402 1403 1404 1406 1407 1409 1410 1411 1413 1414 1416 1418 1420 1422 1424 1425 1426 1428
1433 1430 1427 1425 1423 1420 1418 1414 1412 1410 1407 1405 1403 1401 1400 1399 1398 1398 1397 1397 1396 1396 1395 1395 1395 1396 1397 1398 1399 1401 1403 1404 1405 1406 1408 1410 1412 1414 1416 1418 1419 1420 1422
1430 1427 1424 1421 1419 1417 1414 1411 1408 1406 1403 1401 1398 1396 1395 1394 1393 1393 1392 1391 1391 1390 1390 1389 1389 1389 1391 1391 1393 1394 1396 1397 1399 1400 1402 1404 1406 1407 1409 1411 1413 1414 1416
1427 1424 1421 1418 1415 1413 1410 1407 1404 1402 1399 1396 1394 1392 1390 1389 1388 1388 1387 1386 1386 1385 1385 1384 1384 1384 1384 1385 1387 1388 1389 1391 1392 1394 1396 1398 1399 1401 1403 1404 1406 1407 1409
1423 1421 1418 1414 1411 1409 1406 1403 1401 1398 1395 1393 1390 1388 1386 1385 1384 1383 1382 1381 1381 1381 1381 1380 1380 1379 1379 1380 1381 1382 1383 1384 1386 1387 1389 1391 1392 1394 1396 1397 1399 1400 1402
1420 1417 1414 1411 1408 1405 1402 1399 1397 1394 1391 1388 1386 1384 1383 1381 1380 1378 1377 1377 1377 1376 1376 1376 1375 1374 1375 1375 1376 1377 1378 1379 1380 1382 1382 1384 1385 1387 1388 1390 1392 1393 1395